Year,Month,Day,Hour,Minute,Value (Times are PST for temperature in C)
2009,05,29,00,00,12.90
2009,05,29,00,01,12.90
2009,05,29,00,02,12.90
2009,05,29,00,03,12.90
2009,05,29,00,04,12.90
2009,05,29,00,05,12.90
2009,05,29,00,06,13.00
2009,05,29,00,07,13.00
2009,05,29,00,08,13.00
2009,05,29,00,09,13.00
2009,05,29,00,10,13.00
2009,05,29,00,11,13.00
2009,05,29,00,12,13.00
2009,05,29,00,13,12.90
2009,05,29,00,14,12.90
2009,05,29,00,15,12.90
2009,05,29,00,16,12.90
2009,05,29,00,17,12.90
2009,05,29,00,18,12.90
2009,05,29,00,19,12.90
2009,05,29,00,20,12.90
2009,05,29,00,21,12.80
2009,05,29,00,22,12.80
2009,05,29,00,23,12.80
2009,05,29,00,24,12.80
2009,05,29,00,25,12.80
2009,05,29,00,26,12.80
2009,05,29,00,27,12.80
2009,05,29,00,28,12.80
2009,05,29,00,29,12.80
2009,05,29,00,30,12.80
2009,05,29,00,31,12.80
2009,05,29,00,32,12.80
2009,05,29,00,33,12.80
2009,05,29,00,34,12.80
2009,05,29,00,35,12.80
2009,05,29,00,36,12.80
2009,05,29,00,37,12.80
2009,05,29,00,38,12.80
2009,05,29,00,39,12.80
2009,05,29,00,40,12.80
2009,05,29,00,41,12.80
2009,05,29,00,42,12.80
2009,05,29,00,43,12.70
2009,05,29,00,44,12.70
2009,05,29,00,45,12.70
2009,05,29,00,46,12.70
2009,05,29,00,47,12.70
2009,05,29,00,48,12.60
2009,05,29,00,49,12.60
2009,05,29,00,50,12.60
2009,05,29,00,51,12.60
2009,05,29,00,52,12.60
2009,05,29,00,53,12.60
2009,05,29,00,54,12.60
2009,05,29,00,55,12.60
2009,05,29,00,56,12.60
2009,05,29,00,57,12.60
2009,05,29,00,58,12.60
2009,05,29,00,59,12.60
2009,05,29,01,00,12.60
2009,05,29,01,01,12.60
2009,05,29,01,02,12.60
2009,05,29,01,03,12.60
2009,05,29,01,04,12.60
2009,05,29,01,05,12.70
2009,05,29,01,06,12.70
2009,05,29,01,07,12.70
2009,05,29,01,08,12.70
2009,05,29,01,09,12.70
2009,05,29,01,10,12.60
2009,05,29,01,11,12.60
2009,05,29,01,12,12.60
2009,05,29,01,16,12.70
2009,05,29,01,17,12.70
2009,05,29,01,18,12.70
2009,05,29,01,19,12.70
2009,05,29,01,20,12.70
2009,05,29,01,21,12.70
2009,05,29,01,22,12.70
2009,05,29,01,23,12.70
2009,05,29,01,24,12.70
2009,05,29,01,25,12.60
2009,05,29,01,26,12.60
2009,05,29,01,27,12.60
2009,05,29,01,28,12.60
2009,05,29,01,29,12.50
2009,05,29,01,30,12.50
2009,05,29,01,31,12.50
2009,05,29,01,32,12.40
2009,05,29,01,33,12.40
2009,05,29,01,34,12.40
2009,05,29,01,35,12.40
2009,05,29,01,36,12.50
2009,05,29,01,37,12.50
2009,05,29,01,38,12.50
2009,05,29,01,39,12.60
2009,05,29,01,40,12.60
2009,05,29,01,41,12.60
2009,05,29,01,42,12.60
2009,05,29,01,43,12.60
2009,05,29,01,44,12.60
2009,05,29,01,45,12.60
2009,05,29,01,46,12.60
2009,05,29,01,47,12.50
2009,05,29,01,48,12.60
2009,05,29,01,49,12.60
2009,05,29,01,50,12.60
2009,05,29,01,51,12.60
2009,05,29,01,52,12.60
2009,05,29,01,53,12.60
2009,05,29,01,54,12.60
2009,05,29,01,55,12.60
2009,05,29,01,56,12.60
2009,05,29,01,57,12.60
2009,05,29,01,58,12.60
2009,05,29,01,59,12.60
2009,05,29,02,00,12.60
2009,05,29,02,01,12.60
2009,05,29,02,02,12.60
2009,05,29,02,03,12.60
2009,05,29,02,04,12.60
2009,05,29,02,05,12.60
2009,05,29,02,06,12.50
2009,05,29,02,07,12.50
2009,05,29,02,08,12.50
2009,05,29,02,09,12.50
2009,05,29,02,10,12.60
2009,05,29,02,11,12.60
2009,05,29,02,12,12.60
2009,05,29,02,13,12.60
2009,05,29,02,14,12.60
2009,05,29,02,15,12.60
2009,05,29,02,16,12.60
2009,05,29,02,17,12.60
2009,05,29,02,18,12.60
2009,05,29,02,19,12.60
2009,05,29,02,20,12.60
2009,05,29,02,21,12.60
2009,05,29,02,22,12.50
2009,05,29,02,23,12.60
2009,05,29,02,24,12.60
2009,05,29,02,25,12.60
2009,05,29,02,26,12.60
2009,05,29,02,27,12.60
2009,05,29,02,28,12.50
2009,05,29,02,29,12.50
2009,05,29,02,30,12.40
2009,05,29,02,31,12.40
2009,05,29,02,32,12.40
2009,05,29,02,33,12.40
2009,05,29,02,34,12.40
2009,05,29,02,35,12.30
2009,05,29,02,36,12.30
2009,05,29,02,37,12.30
2009,05,29,02,38,12.30
2009,05,29,02,39,12.30
2009,05,29,02,40,12.30
2009,05,29,02,41,12.30
2009,05,29,02,42,12.20
2009,05,29,02,43,12.20
2009,05,29,02,44,12.20
2009,05,29,02,45,12.20
2009,05,29,02,46,12.20
2009,05,29,02,47,12.20
2009,05,29,02,48,12.20
2009,05,29,02,49,12.20
2009,05,29,02,50,12.20
2009,05,29,02,51,12.20
2009,05,29,02,52,12.20
2009,05,29,02,53,12.10
2009,05,29,02,54,12.10
2009,05,29,02,55,12.10
2009,05,29,02,56,12.10
2009,05,29,02,57,12.10
2009,05,29,02,58,12.10
2009,05,29,02,59,12.10
2009,05,29,03,00,12.10
2009,05,29,03,01,12.10
2009,05,29,03,02,12.10
2009,05,29,03,03,12.10
2009,05,29,03,04,12.00
2009,05,29,03,05,12.00
2009,05,29,03,06,12.00
2009,05,29,03,07,12.00
2009,05,29,03,08,11.90
2009,05,29,03,09,11.90
2009,05,29,03,10,11.90
2009,05,29,03,11,11.80
2009,05,29,03,12,11.80
2009,05,29,03,13,11.70
2009,05,29,03,14,11.70
2009,05,29,03,15,11.70
2009,05,29,03,16,11.80
2009,05,29,03,17,11.80
2009,05,29,03,18,11.80
2009,05,29,03,19,11.80
2009,05,29,03,20,11.80
2009,05,29,03,21,11.80
2009,05,29,03,22,11.80
2009,05,29,03,23,11.80
2009,05,29,03,24,11.80
2009,05,29,03,25,11.80
2009,05,29,03,26,11.70
2009,05,29,03,27,11.70
2009,05,29,03,28,11.70
2009,05,29,03,29,11.70
2009,05,29,03,30,11.70
2009,05,29,03,31,11.70
2009,05,29,03,32,11.60
2009,05,29,03,33,11.60
2009,05,29,03,34,11.60
2009,05,29,03,35,11.60
2009,05,29,03,36,11.60
2009,05,29,03,37,11.60
2009,05,29,03,38,11.70
2009,05,29,03,39,11.70
2009,05,29,03,40,11.70
2009,05,29,03,41,11.80
2009,05,29,03,42,11.80
2009,05,29,03,43,11.80
2009,05,29,03,44,11.80
2009,05,29,03,45,11.90
2009,05,29,03,46,11.90
2009,05,29,03,47,11.90
2009,05,29,03,48,12.00
2009,05,29,03,49,12.00
2009,05,29,03,50,12.00
2009,05,29,03,51,12.10
2009,05,29,03,52,12.10
2009,05,29,03,53,12.10
2009,05,29,03,54,12.10
2009,05,29,03,55,12.10
2009,05,29,03,56,12.00
2009,05,29,03,57,12.00
2009,05,29,03,58,12.00
2009,05,29,03,59,11.90
2009,05,29,04,00,11.90
2009,05,29,04,01,11.90
2009,05,29,04,02,11.90
2009,05,29,04,03,11.90
2009,05,29,04,04,11.90
2009,05,29,04,05,11.90
2009,05,29,04,06,11.90
2009,05,29,04,07,11.90
2009,05,29,04,08,12.00
2009,05,29,04,09,12.00
2009,05,29,04,10,12.00
2009,05,29,04,11,12.00
2009,05,29,04,12,12.10
2009,05,29,04,13,12.10
2009,05,29,04,14,12.00
2009,05,29,04,15,12.00
2009,05,29,04,16,12.00
2009,05,29,04,17,12.00
2009,05,29,04,18,12.00
2009,05,29,04,19,12.00
2009,05,29,04,20,12.00
2009,05,29,04,21,12.10
2009,05,29,04,22,12.10
2009,05,29,04,23,12.10
2009,05,29,04,24,12.10
2009,05,29,04,25,12.10
2009,05,29,04,26,12.10
2009,05,29,04,27,12.00
2009,05,29,04,28,12.00
2009,05,29,04,29,12.00
2009,05,29,04,30,12.00
2009,05,29,04,31,12.00
2009,05,29,04,32,11.90
2009,05,29,04,33,11.90
2009,05,29,04,34,11.90
2009,05,29,04,35,11.90
2009,05,29,04,36,11.90
2009,05,29,04,37,11.80
2009,05,29,04,38,11.80
2009,05,29,04,39,11.80
2009,05,29,04,40,11.80
2009,05,29,04,41,11.70
2009,05,29,04,42,11.70
2009,05,29,04,43,11.70
2009,05,29,04,44,11.70
2009,05,29,04,45,11.60
2009,05,29,04,46,11.60
2009,05,29,04,47,11.60
2009,05,29,04,48,11.60
2009,05,29,04,49,11.60
2009,05,29,04,50,11.60
2009,05,29,04,51,11.60
2009,05,29,04,52,11.60
2009,05,29,04,53,11.60
2009,05,29,04,54,11.60
2009,05,29,04,55,11.60
2009,05,29,04,56,11.60
2009,05,29,04,57,11.50
2009,05,29,04,58,11.50
2009,05,29,04,59,11.50
2009,05,29,05,00,11.50
2009,05,29,05,01,11.40
2009,05,29,05,02,11.40
2009,05,29,05,03,11.40
2009,05,29,05,04,11.40
2009,05,29,05,05,11.40
2009,05,29,05,06,11.30
2009,05,29,05,07,11.30
2009,05,29,05,08,11.30
2009,05,29,05,09,11.30
2009,05,29,05,10,11.30
2009,05,29,05,11,11.30
2009,05,29,05,12,11.30
2009,05,29,05,13,11.20
2009,05,29,05,14,11.20
2009,05,29,05,15,11.20
2009,05,29,05,16,11.20
2009,05,29,05,17,11.20
2009,05,29,05,18,11.20
2009,05,29,05,19,11.20
2009,05,29,05,20,11.20
2009,05,29,05,21,11.20
2009,05,29,05,22,11.20
2009,05,29,05,23,11.20
2009,05,29,05,24,11.20
2009,05,29,05,25,11.10
2009,05,29,05,26,11.10
2009,05,29,05,27,11.20
2009,05,29,05,28,11.20
2009,05,29,05,29,11.20
2009,05,29,05,30,11.20
2009,05,29,05,31,11.20
2009,05,29,05,32,11.20
2009,05,29,05,33,11.20
2009,05,29,05,34,11.20
2009,05,29,05,35,11.20
2009,05,29,05,36,11.20
2009,05,29,05,37,11.10
2009,05,29,05,38,11.10
2009,05,29,05,39,11.10
2009,05,29,05,40,11.20
2009,05,29,05,41,11.20
2009,05,29,05,42,11.20
2009,05,29,05,43,11.20
2009,05,29,05,44,11.20
2009,05,29,05,45,11.20
2009,05,29,05,46,11.30
2009,05,29,05,47,11.30
2009,05,29,05,48,11.30
2009,05,29,05,49,11.30
2009,05,29,05,50,11.30
2009,05,29,05,51,11.30
2009,05,29,05,52,11.30
2009,05,29,05,53,11.30
2009,05,29,05,54,11.30
2009,05,29,05,55,11.30
2009,05,29,05,56,11.30
2009,05,29,05,57,11.30
2009,05,29,05,58,11.30
2009,05,29,05,59,11.30
2009,05,29,06,00,11.30
2009,05,29,06,01,11.30
2009,05,29,06,02,11.30
2009,05,29,06,03,11.30
2009,05,29,06,04,11.30
2009,05,29,06,05,11.30
2009,05,29,06,06,11.30
2009,05,29,06,07,11.30
2009,05,29,06,08,11.30
2009,05,29,06,09,11.30
2009,05,29,06,10,11.40
2009,05,29,06,11,11.40
2009,05,29,06,12,11.40
2009,05,29,06,13,11.40
2009,05,29,06,14,11.50
2009,05,29,06,15,11.50
2009,05,29,06,16,11.50
2009,05,29,06,17,11.50
2009,05,29,06,18,11.60
2009,05,29,06,19,11.60
2009,05,29,06,20,11.60
2009,05,29,06,21,11.60
2009,05,29,06,22,11.70
2009,05,29,06,23,11.70
2009,05,29,06,24,11.70
2009,05,29,06,25,11.80
2009,05,29,06,26,11.80
2009,05,29,06,27,11.80
2009,05,29,06,28,11.80
2009,05,29,06,29,11.90
2009,05,29,06,30,11.90
2009,05,29,06,31,11.90
2009,05,29,06,32,11.90
2009,05,29,06,33,12.00
2009,05,29,06,34,12.10
2009,05,29,06,35,12.10
2009,05,29,06,36,12.20
2009,05,29,06,37,12.20
2009,05,29,06,38,12.20
2009,05,29,06,39,12.30
2009,05,29,06,40,12.30
2009,05,29,06,41,12.40
2009,05,29,06,42,12.50
2009,05,29,06,43,12.50
2009,05,29,06,44,12.60
2009,05,29,06,45,12.60
2009,05,29,06,46,12.70
2009,05,29,06,47,12.70
2009,05,29,06,48,12.80
2009,05,29,06,49,12.90
2009,05,29,06,50,12.90
2009,05,29,06,51,13.00
2009,05,29,06,52,13.00
2009,05,29,06,53,13.10
2009,05,29,06,54,13.20
2009,05,29,06,55,13.30
2009,05,29,06,56,13.40
2009,05,29,06,57,13.50
2009,05,29,06,58,13.60
2009,05,29,06,59,13.60
2009,05,29,07,00,13.70
2009,05,29,07,01,13.70
2009,05,29,07,02,13.80
2009,05,29,07,03,13.80
2009,05,29,07,04,13.90
2009,05,29,07,05,13.90
2009,05,29,07,06,14.00
2009,05,29,07,07,14.10
2009,05,29,07,08,14.10
2009,05,29,07,09,14.20
2009,05,29,07,10,14.40
2009,05,29,07,11,14.50
2009,05,29,07,12,14.60
2009,05,29,07,13,14.70
2009,05,29,07,14,14.80
2009,05,29,07,15,14.90
2009,05,29,07,16,15.00
2009,05,29,07,17,15.10
2009,05,29,07,18,15.30
2009,05,29,07,19,15.40
2009,05,29,07,20,15.50
2009,05,29,07,21,15.60
2009,05,29,07,22,15.70
2009,05,29,07,23,15.80
2009,05,29,07,24,15.80
2009,05,29,07,25,15.90
2009,05,29,07,26,16.00
2009,05,29,07,27,16.10
2009,05,29,07,28,16.20
2009,05,29,07,29,16.30
2009,05,29,07,30,16.40
2009,05,29,07,31,16.50
2009,05,29,07,32,16.60
2009,05,29,07,33,16.80
2009,05,29,07,34,16.90
2009,05,29,07,35,17.00
2009,05,29,07,36,17.20
2009,05,29,07,37,17.30
2009,05,29,07,38,17.40
2009,05,29,07,39,17.50
2009,05,29,07,40,17.60
2009,05,29,07,41,17.70
2009,05,29,07,42,17.80
2009,05,29,07,43,17.90
2009,05,29,07,44,18.00
2009,05,29,07,45,18.10
2009,05,29,07,46,18.10
2009,05,29,07,47,18.20
2009,05,29,07,48,18.30
2009,05,29,07,49,18.40
2009,05,29,07,50,18.40
2009,05,29,07,51,18.50
2009,05,29,07,52,18.50
2009,05,29,07,53,18.50
2009,05,29,07,54,18.50
2009,05,29,07,55,18.50
2009,05,29,07,56,18.60
2009,05,29,07,57,18.60
2009,05,29,07,58,18.70
2009,05,29,07,59,18.70
2009,05,29,08,00,18.70
2009,05,29,08,01,18.70
2009,05,29,08,02,18.80
2009,05,29,08,03,18.90
2009,05,29,08,04,18.90
2009,05,29,08,05,19.00
2009,05,29,08,06,19.10
2009,05,29,08,07,19.20
2009,05,29,08,08,19.30
2009,05,29,08,09,19.40
2009,05,29,08,10,19.50
2009,05,29,08,11,19.50
2009,05,29,08,12,19.40
2009,05,29,08,13,19.30
2009,05,29,08,14,19.20
2009,05,29,08,15,19.20
2009,05,29,08,16,19.10
2009,05,29,08,17,19.00
2009,05,29,08,18,18.90
2009,05,29,08,19,19.00
2009,05,29,08,20,19.00
2009,05,29,08,21,19.10
2009,05,29,08,22,19.20
2009,05,29,08,23,19.20
2009,05,29,08,24,19.20
2009,05,29,08,25,19.20
2009,05,29,08,26,19.10
2009,05,29,08,27,19.10
2009,05,29,08,28,19.20
2009,05,29,08,29,19.30
2009,05,29,08,30,19.30
2009,05,29,08,31,19.40
2009,05,29,08,32,19.40
2009,05,29,08,33,19.50
2009,05,29,08,34,19.60
2009,05,29,08,35,19.70
2009,05,29,08,36,19.80
2009,05,29,08,37,19.90
2009,05,29,08,38,19.90
2009,05,29,08,39,20.00
2009,05,29,08,40,20.00
2009,05,29,08,41,20.00
2009,05,29,08,42,20.00
2009,05,29,08,43,20.00
2009,05,29,08,44,19.90
2009,05,29,08,45,19.90
2009,05,29,08,46,19.90
2009,05,29,08,47,19.90
2009,05,29,08,48,19.90
2009,05,29,08,49,19.90
2009,05,29,08,50,19.90
2009,05,29,08,51,20.00
2009,05,29,08,52,20.10
2009,05,29,08,53,20.20
2009,05,29,08,54,20.20
2009,05,29,08,55,20.30
2009,05,29,08,56,20.40
2009,05,29,08,57,20.40
2009,05,29,08,58,20.50
2009,05,29,08,59,20.50
2009,05,29,09,00,20.60
2009,05,29,09,01,20.60
2009,05,29,09,02,20.70
2009,05,29,09,03,20.70
2009,05,29,09,04,20.70
2009,05,29,09,05,20.70
2009,05,29,09,06,20.70
2009,05,29,09,07,20.70
2009,05,29,09,08,20.70
2009,05,29,09,09,20.80
2009,05,29,09,10,20.70
2009,05,29,09,11,20.70
2009,05,29,09,12,20.50
2009,05,29,09,13,20.40
2009,05,29,09,14,20.30
2009,05,29,09,15,20.30
2009,05,29,09,16,20.20
2009,05,29,09,17,20.30
2009,05,29,09,18,20.30
2009,05,29,09,19,20.30
2009,05,29,09,20,20.40
2009,05,29,09,21,20.40
2009,05,29,09,22,20.40
2009,05,29,09,23,20.40
2009,05,29,09,24,20.40
2009,05,29,09,25,20.40
2009,05,29,09,26,20.50
2009,05,29,09,27,20.60
2009,05,29,09,28,20.60
2009,05,29,09,29,20.60
2009,05,29,09,30,20.60
2009,05,29,09,31,20.60
2009,05,29,09,32,20.70
2009,05,29,09,33,20.70
2009,05,29,09,34,20.80
2009,05,29,09,35,20.80
2009,05,29,09,36,20.90
2009,05,29,09,37,20.90
2009,05,29,09,38,20.90
2009,05,29,09,39,20.90
2009,05,29,09,40,20.90
2009,05,29,09,41,20.90
2009,05,29,09,42,20.90
2009,05,29,09,43,20.90
2009,05,29,09,44,20.90
2009,05,29,09,45,21.00
2009,05,29,09,46,21.00
2009,05,29,09,47,21.00
2009,05,29,09,48,21.00
2009,05,29,09,49,20.90
2009,05,29,09,50,20.80
2009,05,29,09,51,20.70
2009,05,29,09,52,20.70
2009,05,29,09,53,20.70
2009,05,29,09,54,20.80
2009,05,29,09,55,20.80
2009,05,29,09,56,20.90
2009,05,29,09,57,21.00
2009,05,29,09,58,21.10
2009,05,29,09,59,21.10
2009,05,29,10,00,21.10
2009,05,29,10,01,21.00
2009,05,29,10,02,21.00
2009,05,29,10,03,20.90
2009,05,29,10,04,20.90
2009,05,29,10,05,20.80
2009,05,29,10,06,20.80
2009,05,29,10,07,20.90
2009,05,29,10,08,20.90
2009,05,29,10,09,21.00
2009,05,29,10,10,21.00
2009,05,29,10,11,21.00
2009,05,29,10,12,20.90
2009,05,29,10,13,20.80
2009,05,29,10,14,20.70
2009,05,29,10,15,20.70
2009,05,29,10,16,20.70
2009,05,29,10,17,20.70
2009,05,29,10,18,20.80
2009,05,29,10,19,20.90
2009,05,29,10,20,20.90
2009,05,29,10,21,21.00
2009,05,29,10,22,21.00
2009,05,29,10,23,21.00
2009,05,29,10,24,20.90
2009,05,29,10,25,20.80
2009,05,29,10,26,20.80
2009,05,29,10,27,20.90
2009,05,29,10,28,21.00
2009,05,29,10,29,21.10
2009,05,29,10,30,21.20
2009,05,29,10,31,21.30
2009,05,29,10,32,21.30
2009,05,29,10,33,21.30
2009,05,29,10,34,21.20
2009,05,29,10,35,21.20
2009,05,29,10,36,21.10
2009,05,29,10,37,21.10
2009,05,29,10,38,21.10
2009,05,29,10,39,21.20
2009,05,29,10,40,21.10
2009,05,29,10,41,21.10
2009,05,29,10,42,21.10
2009,05,29,10,43,21.20
2009,05,29,10,44,21.20
2009,05,29,10,45,21.30
2009,05,29,10,46,21.30
2009,05,29,10,47,21.40
2009,05,29,10,48,21.40
2009,05,29,10,49,21.40
2009,05,29,10,50,21.30
2009,05,29,10,51,21.30
2009,05,29,10,52,21.20
2009,05,29,10,53,21.10
2009,05,29,10,54,21.00
2009,05,29,10,55,20.90
2009,05,29,10,56,20.80
2009,05,29,10,57,20.70
2009,05,29,10,58,20.80
2009,05,29,10,59,20.80
2009,05,29,11,00,20.90
2009,05,29,11,01,21.00
2009,05,29,11,02,21.10
2009,05,29,11,03,21.20
2009,05,29,11,04,21.30
2009,05,29,11,05,21.30
2009,05,29,11,06,21.40
2009,05,29,11,07,21.50
2009,05,29,11,08,21.60
2009,05,29,11,09,21.80
2009,05,29,11,10,21.90
2009,05,29,11,11,22.00
2009,05,29,11,12,22.00
2009,05,29,11,13,22.00
2009,05,29,11,14,22.00
2009,05,29,11,15,22.00
2009,05,29,11,16,22.10
2009,05,29,11,17,22.10
2009,05,29,11,18,22.20
2009,05,29,11,19,22.20
2009,05,29,11,20,22.20
2009,05,29,11,21,22.10
2009,05,29,11,22,22.00
2009,05,29,11,23,21.90
2009,05,29,11,24,21.90
2009,05,29,11,25,21.80
2009,05,29,11,26,21.80
2009,05,29,11,27,21.80
2009,05,29,11,28,21.80
2009,05,29,11,29,21.80
2009,05,29,11,30,21.80
2009,05,29,11,31,21.80
2009,05,29,11,32,21.80
2009,05,29,11,33,21.70
2009,05,29,11,34,21.60
2009,05,29,11,35,21.50
2009,05,29,11,36,21.40
2009,05,29,11,37,21.30
2009,05,29,11,38,21.20
2009,05,29,11,39,21.10
2009,05,29,11,40,21.00
2009,05,29,11,41,20.90
2009,05,29,11,42,20.80
2009,05,29,11,43,20.70
2009,05,29,11,44,20.60
2009,05,29,11,45,20.60
2009,05,29,11,46,20.50
2009,05,29,11,47,20.40
2009,05,29,11,48,20.30
2009,05,29,11,49,20.30
2009,05,29,11,50,20.30
2009,05,29,11,51,20.40
2009,05,29,11,52,20.50
2009,05,29,11,53,20.60
2009,05,29,11,54,20.70
2009,05,29,11,55,20.80
2009,05,29,11,56,20.90
2009,05,29,11,57,21.00
2009,05,29,11,58,21.10
2009,05,29,11,59,21.20
2009,05,29,12,00,21.30
2009,05,29,12,01,21.40
2009,05,29,12,02,21.40
2009,05,29,12,03,21.40
2009,05,29,12,04,21.40
2009,05,29,12,05,21.40
2009,05,29,12,06,21.40
2009,05,29,12,07,21.40
2009,05,29,12,08,21.40
2009,05,29,12,09,21.40
2009,05,29,12,10,21.40
2009,05,29,12,11,21.40
2009,05,29,12,12,21.40
2009,05,29,12,13,21.40
2009,05,29,12,14,21.40
2009,05,29,12,15,21.30
2009,05,29,12,16,21.30
2009,05,29,12,17,21.20
2009,05,29,12,18,21.20
2009,05,29,12,19,21.00
2009,05,29,12,20,20.90
2009,05,29,12,21,20.90
2009,05,29,12,22,20.90
2009,05,29,12,23,20.90
2009,05,29,12,24,20.90
2009,05,29,12,25,20.70
2009,05,29,12,26,20.60
2009,05,29,12,27,20.50
2009,05,29,12,28,20.30
2009,05,29,12,29,20.30
2009,05,29,12,30,20.30
2009,05,29,12,31,20.30
2009,05,29,12,32,20.40
2009,05,29,12,33,20.50
2009,05,29,12,34,20.50
2009,05,29,12,35,20.60
2009,05,29,12,36,20.60
2009,05,29,12,37,20.70
2009,05,29,12,38,20.80
2009,05,29,12,39,20.80
2009,05,29,12,40,20.80
2009,05,29,12,41,20.80
2009,05,29,12,42,20.90
2009,05,29,12,43,20.90
2009,05,29,12,44,20.90
2009,05,29,12,45,20.90
2009,05,29,12,46,20.90
2009,05,29,12,47,20.90
2009,05,29,12,48,20.90
2009,05,29,12,49,21.00
2009,05,29,12,50,21.00
2009,05,29,12,51,21.10
2009,05,29,12,52,21.10
2009,05,29,12,53,21.00
2009,05,29,12,54,20.90
2009,05,29,12,55,20.90
2009,05,29,12,56,20.80
2009,05,29,12,57,20.70
2009,05,29,12,58,20.70
2009,05,29,12,59,20.80
2009,05,29,13,00,20.90
2009,05,29,13,01,20.80
2009,05,29,13,02,20.90
2009,05,29,13,03,20.90
2009,05,29,13,04,20.90
2009,05,29,13,05,21.00
2009,05,29,13,06,21.00
2009,05,29,13,07,21.10
2009,05,29,13,08,21.10
2009,05,29,13,09,21.20
2009,05,29,13,10,21.20
2009,05,29,13,11,21.30
2009,05,29,13,12,21.40
2009,05,29,13,13,21.40
2009,05,29,13,14,21.40
2009,05,29,13,15,21.40
2009,05,29,13,16,21.40
2009,05,29,13,17,21.30
2009,05,29,13,18,21.30
2009,05,29,13,19,21.10
2009,05,29,13,20,21.00
2009,05,29,13,21,20.90
2009,05,29,13,22,20.90
2009,05,29,13,23,20.90
2009,05,29,13,24,20.90
2009,05,29,13,25,20.80
2009,05,29,13,26,20.80
2009,05,29,13,27,20.80
2009,05,29,13,28,20.80
2009,05,29,13,29,20.80
2009,05,29,13,30,20.70
2009,05,29,13,31,20.70
2009,05,29,13,32,20.70
2009,05,29,13,33,20.70
2009,05,29,13,34,20.70
2009,05,29,13,35,20.80
2009,05,29,13,36,20.70
2009,05,29,13,37,20.80
2009,05,29,13,38,20.80
2009,05,29,13,39,20.80
2009,05,29,13,40,20.90
2009,05,29,13,41,20.90
2009,05,29,13,42,21.00
2009,05,29,13,43,21.10
2009,05,29,13,44,21.20
2009,05,29,13,45,21.30
2009,05,29,13,46,21.30
2009,05,29,13,47,21.40
2009,05,29,13,48,21.40
2009,05,29,13,49,21.40
2009,05,29,13,50,21.40
2009,05,29,13,51,21.40
2009,05,29,13,52,21.40
2009,05,29,13,53,21.30
2009,05,29,13,54,21.30
2009,05,29,13,55,21.30
2009,05,29,13,56,21.30
2009,05,29,13,57,21.30
2009,05,29,13,58,21.40
2009,05,29,13,59,21.40
2009,05,29,14,00,21.40
2009,05,29,14,01,21.40
2009,05,29,14,02,21.40
2009,05,29,14,03,21.30
2009,05,29,14,04,21.30
2009,05,29,14,05,21.30
2009,05,29,14,06,21.30
2009,05,29,14,07,21.20
2009,05,29,14,08,21.20
2009,05,29,14,09,21.20
2009,05,29,14,10,21.20
2009,05,29,14,11,21.20
2009,05,29,14,12,21.30
2009,05,29,14,13,21.30
2009,05,29,14,14,21.30
2009,05,29,14,15,21.30
2009,05,29,14,16,21.40
2009,05,29,14,17,21.40
2009,05,29,14,18,21.40
2009,05,29,14,19,21.30
2009,05,29,14,20,21.30
2009,05,29,14,21,21.20
2009,05,29,14,22,21.10
2009,05,29,14,23,21.10
2009,05,29,14,24,21.20
2009,05,29,14,25,21.30
2009,05,29,14,26,21.30
2009,05,29,14,27,21.30
2009,05,29,14,28,21.40
2009,05,29,14,29,21.40
2009,05,29,14,30,21.40
2009,05,29,14,31,21.40
2009,05,29,14,32,21.40
2009,05,29,14,33,21.30
2009,05,29,14,34,21.20
2009,05,29,14,35,21.10
2009,05,29,14,36,21.00
2009,05,29,14,37,21.00
2009,05,29,14,38,21.00
2009,05,29,14,39,21.10
2009,05,29,14,40,21.10
2009,05,29,14,41,21.20
2009,05,29,14,42,21.30
2009,05,29,14,43,21.30
2009,05,29,14,44,21.40
2009,05,29,14,45,21.40
2009,05,29,14,46,21.40
2009,05,29,14,47,21.40
2009,05,29,14,48,21.40
2009,05,29,14,49,21.30
2009,05,29,14,50,21.40
2009,05,29,14,51,21.40
2009,05,29,14,52,21.30
2009,05,29,14,53,21.30
2009,05,29,14,54,21.20
2009,05,29,14,55,21.20
2009,05,29,14,56,21.30
2009,05,29,14,57,21.30
2009,05,29,14,58,21.30
2009,05,29,14,59,21.30
2009,05,29,15,00,21.30
2009,05,29,15,01,21.30
2009,05,29,15,02,21.30
2009,05,29,15,03,21.40
2009,05,29,15,04,21.50
2009,05,29,15,05,21.50
2009,05,29,15,06,21.60
2009,05,29,15,07,21.60
2009,05,29,15,08,21.70
2009,05,29,15,09,21.70
2009,05,29,15,10,21.70
2009,05,29,15,11,21.70
2009,05,29,15,12,21.70
2009,05,29,15,13,21.70
2009,05,29,15,14,21.70
2009,05,29,15,15,21.70
2009,05,29,15,16,21.70
2009,05,29,15,17,21.70
2009,05,29,15,18,21.60
2009,05,29,15,19,21.50
2009,05,29,15,20,21.50
2009,05,29,15,21,21.40
2009,05,29,15,22,21.40
2009,05,29,15,23,21.50
2009,05,29,15,24,21.50
2009,05,29,15,25,21.50
2009,05,29,15,26,21.40
2009,05,29,15,27,21.40
2009,05,29,15,28,21.40
2009,05,29,15,29,21.40
2009,05,29,15,30,21.40
2009,05,29,15,31,21.30
2009,05,29,15,32,21.30
2009,05,29,15,33,21.40
2009,05,29,15,34,21.40
2009,05,29,15,35,21.40
2009,05,29,15,36,21.40
2009,05,29,15,37,21.40
2009,05,29,15,38,21.40
2009,05,29,15,39,21.20
2009,05,29,15,40,21.20
2009,05,29,15,41,21.20
2009,05,29,15,42,21.30
2009,05,29,15,43,21.30
2009,05,29,15,44,21.30
2009,05,29,15,45,21.30
2009,05,29,15,46,21.20
2009,05,29,15,47,21.20
2009,05,29,15,48,21.20
2009,05,29,15,49,21.20
2009,05,29,15,50,21.20
2009,05,29,15,51,21.20
2009,05,29,15,52,21.30
2009,05,29,15,53,21.30
2009,05,29,15,54,21.40
2009,05,29,15,55,21.50
2009,05,29,15,56,21.60
2009,05,29,15,57,21.70
2009,05,29,15,58,21.70
2009,05,29,15,59,21.80
2009,05,29,16,00,21.90
2009,05,29,16,01,22.10
2009,05,29,16,02,22.20
2009,05,29,16,03,22.20
2009,05,29,16,04,22.30
2009,05,29,16,05,22.30
2009,05,29,16,06,22.40
2009,05,29,16,07,22.40
2009,05,29,16,08,22.40
2009,05,29,16,09,22.50
2009,05,29,16,10,22.60
2009,05,29,16,11,22.60
2009,05,29,16,12,22.70
2009,05,29,16,13,22.80
2009,05,29,16,14,22.90
2009,05,29,16,15,22.90
2009,05,29,16,16,22.90
2009,05,29,16,17,22.90
2009,05,29,16,18,22.90
2009,05,29,16,19,22.80
2009,05,29,16,20,22.80
2009,05,29,16,21,22.70
2009,05,29,16,22,22.60
2009,05,29,16,23,22.60
2009,05,29,16,24,22.60
2009,05,29,16,25,22.60
2009,05,29,16,26,22.60
2009,05,29,16,27,22.60
2009,05,29,16,28,22.60
2009,05,29,16,29,22.70
2009,05,29,16,30,22.70
2009,05,29,16,31,22.80
2009,05,29,16,32,22.80
2009,05,29,16,33,22.80
2009,05,29,16,34,22.90
2009,05,29,16,35,22.90
2009,05,29,16,36,22.80
2009,05,29,16,37,22.90
2009,05,29,16,38,22.90
2009,05,29,16,39,22.80
2009,05,29,16,40,22.80
2009,05,29,16,41,22.80
2009,05,29,16,42,22.80
2009,05,29,16,43,22.70
2009,05,29,16,44,22.60
2009,05,29,16,45,22.60
2009,05,29,16,46,22.60
2009,05,29,16,47,22.70
2009,05,29,16,48,22.70
2009,05,29,16,49,22.80
2009,05,29,16,50,22.90
2009,05,29,16,51,23.00
2009,05,29,16,52,23.00
2009,05,29,16,53,23.10
2009,05,29,16,54,23.20
2009,05,29,16,55,23.20
2009,05,29,16,56,23.20
2009,05,29,16,57,23.20
2009,05,29,16,58,23.20
2009,05,29,16,59,23.20
2009,05,29,17,00,23.30
2009,05,29,17,01,23.20
2009,05,29,17,02,23.20
2009,05,29,17,03,23.20
2009,05,29,17,04,23.20
2009,05,29,17,05,23.10
2009,05,29,17,06,23.10
2009,05,29,17,07,22.90
2009,05,29,17,08,22.70
2009,05,29,17,09,22.60
2009,05,29,17,10,22.50
2009,05,29,17,11,22.30
2009,05,29,17,12,22.20
2009,05,29,17,13,22.20
2009,05,29,17,14,22.10
2009,05,29,17,15,22.10
2009,05,29,17,16,22.10
2009,05,29,17,17,22.00
2009,05,29,17,18,22.00
2009,05,29,17,19,21.90
2009,05,29,17,20,21.90
2009,05,29,17,21,21.90
2009,05,29,17,22,21.80